Find Starlink 34392

NORAD ID: 64451 Int'l Des: 2025-130 Owner: SPXS Country: US Constellation: starlink operational
LEOCIRCULAR

Current View

Loading 3D Globe...

About Starlink 34392

Description loading...

Upcoming Passes

Passes for default location (London). Set your location on the main map for personalized predictions.

Altitude History

Loading altitude history...

Two-Line Element Set

1 64451U 25130P 26150.10198495 .00030927 00000-0 10517-2 0 9999
2 64451 53.1598 70.6640 0000968 106.9997 253.1109 15.30208400 53169
Epoch: May 30, 2026 • Age: 11 hours

Current Status

Altitude 476.6 km
Velocity 7.63 km/s
Sub-Earth Point 29.88°N, 1.96°E
Launch Date Jun 18, 2025
Age 0.9 years
Type internet

Technical Details

Classification Payload
Mass 575.00 kg
Dry Mass 530.00 kg
Total Mass 575.00 kg
Length 0.30 m
Diameter 4.10 m
Span 29.00 m
Shape Box + pan
Manufacturer SPXS
Bus Type Starlink V2MO
Phase Status In Orbit
Owner/State SPXS/US

Most Searched